When you browse on this site, cookies collect data to enhance your experience and personalize the content and advertising you see.
Visit our Privacy Policy to learn more. By continuing to use the site, you agree to this use of cookies and data.
  • In Austria
  • List of Countries
  • For 7 days
  • Water Temperature
  • Satellite Maps
  • Weather Map
  • News
  • Weather Widgets
  • user-avatar
    Login

    Hourly Weather Kvandzhu

    Today, 21 March, Thursday

    Time Temperature Precipitation Wind Pressure Humidity
    00:00 +15°C° 0.1 mm 7 mps 747 mmHg 94%
    01:00 +14°C° 0.1 mm 6 mps 747 mmHg 93%
    02:00 +13°C° 0 mm 3 mps 748 mmHg 93%
    03:00 +12°C° 0 mm 4 mps 748 mmHg 91%
    04:00 +11°C° 0 mm 4 mps 749 mmHg 90%
    05:00 +10°C° 0 mm 5 mps 749 mmHg 89%
    06:00 +10°C° 0 mm 5 mps 750 mmHg 88%
    07:00 +11°C° 0 mm 4 mps 750 mmHg 88%
    08:00 +11°C° 0 mm 3 mps 751 mmHg 84%
    09:00 +11°C° 0 mm 4 mps 751 mmHg 83%
    10:00 +10°C° 0 mm 5 mps 752 mmHg 82%
    11:00 +10°C° 0 mm 6 mps 752 mmHg 81%
    12:00 +10°C° 0.1 mm 6 mps 753 mmHg 81%
    13:00 +9°C° 0.1 mm 7 mps 753 mmHg 80%
    14:00 +10°C° 0 mm 4 mps 753 mmHg 78%
    15:00 +8°C° 0 mm 5 mps 754 mmHg 77%
    16:00 +7°C° 0 mm 6 mps 754 mmHg 76%
    17:00 +5°C° 0 mm 7 mps 755 mmHg 76%
    18:00 +5°C° 0 mm 6 mps 755 mmHg 75%
    19:00 +4°C° 0 mm 6 mps 756 mmHg 75%
    20:00 +5°C° 0 mm 5 mps 756 mmHg 74%
    21:00 +3°C° 0 mm 5 mps 757 mmHg 73%
    22:00 +3°C° 0 mm 5 mps 757 mmHg 72%
    23:00 +3°C° 0 mm 5 mps 758 mmHg 71%

    Tomorrow, 22 March, Friday

    Time Temperature Precipitation Wind Pressure Humidity
    00:00 +4°C° 0 mm 4 mps 758 mmHg 72%
    01:00 +3°C° 0 mm 4 mps 758 mmHg 73%
    02:00 +1°C° 0 mm 4 mps 758 mmHg 73%
    03:00 +2°C° 0 mm 3 mps 759 mmHg 74%
    04:00 +2°C° 0 mm 3 mps 759 mmHg 74%
    05:00 +1°C° 0 mm 3 mps 759 mmHg 74%
    06:00 +1°C° 0 mm 4 mps 759 mmHg 69%
    07:00 +3°C° 0 mm 4 mps 759 mmHg 64%
    08:00 +3°C° 0 mm 5 mps 760 mmHg 59%
    09:00 +5°C° 0 mm 5 mps 760 mmHg 54%
    10:00 +5°C° 0 mm 6 mps 760 mmHg 49%
    11:00 +8°C° 0 mm 6 mps 760 mmHg 44%
    12:00 +8°C° 0 mm 6 mps 760 mmHg 43%
    13:00 +8°C° 0 mm 6 mps 760 mmHg 42%
    14:00 +8°C° 0 mm 7 mps 759 mmHg 40%
    15:00 +7°C° 0 mm 6 mps 760 mmHg 42%
    16:00 +5°C° 0 mm 6 mps 760 mmHg 44%
    17:00 +5°C° 0 mm 6 mps 760 mmHg 46%
    18:00 +5°C° 0 mm 5 mps 760 mmHg 51%
    19:00 +4°C° 0 mm 4 mps 761 mmHg 55%
    20:00 +3°C° 0 mm 3 mps 761 mmHg 59%
    21:00 +3°C° 0 mm 2 mps 761 mmHg 60%
    22:00 +3°C° 0 mm 2 mps 762 mmHg 61%
    23:00 +3°C° 0 mm 2 mps 762 mmHg 62%

    Day after tomorrow, 23 March, Saturday

    Time Temperature Precipitation Wind Pressure Humidity
    00:00 +3°C° 0 mm 2 mps 762 mmHg 62%
    01:00 +3°C° 0 mm 2 mps 762 mmHg 62%
    02:00 +3°C° 0 mm 1 mps 762 mmHg 62%
    03:00 +3°C° 0 mm 1 mps 762 mmHg 63%
    04:00 +3°C° 0 mm 1 mps 762 mmHg 64%
    05:00 +2°C° 0 mm 1 mps 762 mmHg 65%
    06:00 +4°C° 0 mm 1 mps 762 mmHg 59%
    07:00 +5°C° 0 mm 2 mps 762 mmHg 53%
    08:00 +7°C° 0 mm 2 mps 762 mmHg 47%
    09:00 +8°C° 0 mm 3 mps 762 mmHg 45%
    10:00 +8°C° 0 mm 5 mps 762 mmHg 43%
    11:00 +9°C° 0 mm 6 mps 762 mmHg 41%
    12:00 +9°C° 0.4 mm 6 mps 761 mmHg 47%
    13:00 +9°C° 0.4 mm 7 mps 761 mmHg 52%
    14:00 +7°C° 0.4 mm 8 mps 760 mmHg 57%
    15:00 +8°C° 0.1 mm 7 mps 760 mmHg 55%
    16:00 +7°C° 0.1 mm 6 mps 761 mmHg 52%
    17:00 +5°C° 0.1 mm 6 mps 761 mmHg 49%
    18:00 +5°C° 0 mm 5 mps 762 mmHg 52%
    19:00 +4°C° 0 mm 4 mps 762 mmHg 55%
    20:00 +3°C° 0 mm 4 mps 763 mmHg 57%
    21:00 +2°C° 0 mm 3 mps 763 mmHg 59%
    22:00 +3°C° 0 mm 2 mps 764 mmHg 61%
    23:00 +2°C° 0 mm 2 mps 764 mmHg 62%

    24 March, Sunday

    Time Temperature Precipitation Wind Pressure Humidity
    00:00 +2°C° 0 mm 2 mps 764 mmHg 64%
    01:00 +3°C° 0 mm 1 mps 764 mmHg 66%
    02:00 +2°C° 0 mm 1 mps 764 mmHg 67%
    03:00 +2°C° 0 mm 1 mps 764 mmHg 67%
    04:00 +2°C° 0 mm 1 mps 764 mmHg 68%
    05:00 +1°C° 0 mm 0 mps 764 mmHg 68%
    06:00 +3°C° 0 mm 0 mps 764 mmHg 61%
    07:00 +6°C° 0 mm 1 mps 764 mmHg 54%
    08:00 +8°C° 0 mm 1 mps 764 mmHg 47%
    09:00 +9°C° 0 mm 1 mps 764 mmHg 44%
    10:00 +9°C° 0 mm 2 mps 763 mmHg 41%
    11:00 +12°C° 0 mm 2 mps 763 mmHg 38%
    12:00 +11°C° 0 mm 3 mps 763 mmHg 39%
    13:00 +11°C° 0 mm 3 mps 762 mmHg 40%
    14:00 +11°C° 0 mm 4 mps 762 mmHg 40%
    15:00 +10°C° 0 mm 4 mps 762 mmHg 45%
    16:00 +8°C° 0 mm 4 mps 762 mmHg 49%
    17:00 +8°C° 0 mm 3 mps 762 mmHg 53%
    18:00 +7°C° 0 mm 3 mps 762 mmHg 58%
    19:00 +6°C° 0 mm 2 mps 762 mmHg 62%
    20:00 +5°C° 0 mm 1 mps 762 mmHg 67%
    21:00 +5°C° 0 mm 1 mps 762 mmHg 67%
    22:00 +5°C° 0 mm 1 mps 762 mmHg 68%
    23:00 +4°C° 0 mm 0 mps 762 mmHg 68%

    25 March, Monday

    Time Temperature Precipitation Wind Pressure Humidity
    00:00 +4°C° 0 mm 0 mps 762 mmHg 68%
    01:00 +4°C° 0 mm 0 mps 761 mmHg 68%
    02:00 +4°C° 0 mm 0 mps 761 mmHg 69%
    03:00 +4°C° 0 mm 0 mps 761 mmHg 69%
    04:00 +5°C° 0 mm 1 mps 760 mmHg 69%
    05:00 +5°C° 0 mm 1 mps 760 mmHg 69%
    06:00 +6°C° 0 mm 1 mps 760 mmHg 65%
    07:00 +8°C° 0 mm 1 mps 760 mmHg 61%
    08:00 +9°C° 0 mm 1 mps 761 mmHg 57%
    09:00 +10°C° 0 mm 2 mps 761 mmHg 53%
    10:00 +11°C° 0 mm 3 mps 761 mmHg 48%
    11:00 +13°C° 0 mm 3 mps 760 mmHg 44%
    12:00 +13°C° 0 mm 3 mps 760 mmHg 43%
    13:00 +14°C° 0 mm 4 mps 759 mmHg 42%
    14:00 +14°C° 0 mm 4 mps 759 mmHg 41%
    15:00 +13°C° 0 mm 3 mps 759 mmHg 45%
    16:00 +12°C° 0 mm 3 mps 758 mmHg 50%
    17:00 +12°C° 0 mm 2 mps 758 mmHg 55%
    18:00 +9°C° 0 mm 2 mps 759 mmHg 63%
    19:00 +9°C° 0 mm 1 mps 759 mmHg 70%
    20:00 +8°C° 0 mm 1 mps 759 mmHg 78%
    21:00 +7°C° 0 mm 1 mps 759 mmHg 81%
    22:00 +7°C° 0 mm 1 mps 759 mmHg 84%
    23:00 +6°C° 0 mm 0 mps 759 mmHg 87%

    26 March, Tuesday

    Time Temperature Precipitation Wind Pressure Humidity
    00:00 +5°C° 0 mm 0 mps 759 mmHg 88%
    01:00 +5°C° 0 mm 0 mps 759 mmHg 90%
    02:00 +5°C° 0 mm 0 mps 759 mmHg 91%
    03:00 +5°C° 0 mm 0 mps 759 mmHg 92%
    04:00 +6°C° 0 mm 0 mps 759 mmHg 92%
    05:00 +6°C° 0 mm 0 mps 759 mmHg 93%
    06:00 +8°C° 0 mm 1 mps 759 mmHg 89%
    07:00 +10°C° 0 mm 1 mps 760 mmHg 86%
    08:00 +11°C° 0 mm 1 mps 760 mmHg 82%
    09:00 +13°C° 0 mm 1 mps 760 mmHg 74%
    10:00 +14°C° 0 mm 2 mps 760 mmHg 66%
    11:00 +16°C° 0 mm 2 mps 760 mmHg 57%
    12:00 +17°C° 0 mm 2 mps 760 mmHg 51%
    13:00 +18°C° 0 mm 2 mps 759 mmHg 44%
    14:00 +18°C° 0 mm 2 mps 759 mmHg 38%
    15:00 +17°C° 0 mm 2 mps 759 mmHg 42%
    16:00 +17°C° 0 mm 2 mps 759 mmHg 47%
    17:00 +16°C° 0 mm 2 mps 759 mmHg 52%
    18:00 +14°C° 0 mm 1 mps 760 mmHg 61%
    19:00 +12°C° 0 mm 1 mps 760 mmHg 70%
    20:00 +10°C° 0 mm 1 mps 761 mmHg 79%
    21:00 +10°C° 0 mm 1 mps 760 mmHg 82%
    22:00 +9°C° 0 mm 1 mps 760 mmHg 84%
    23:00 +9°C° 0 mm 1 mps 760 mmHg 87%
    Show more